Location: Kapuskasing
(49.3803°N, 82.4001°W)
Time: 10:27:31
(UTC-04:00)

Envisat - Pass Details

Date: 18 March 2026
Orbit: 761 x 762 km, 98.4° (Epoch: 19 April)

Event Time Altitude Azimuth Distance (km) Brightness Sun altitude
Rises 03:29:24 0° 21° (NNE) 3,237 7.2 -36.0°
Reaches altitude 10° 03:31:56 10° 31° (NNE) 2,305 6.2 -35.7°
Enters shadow 03:35:05 29° 63° (ENE) 1,390 4.7 -35.4°
